Overview Statistics Trail Chart Weather Telemetry Raw packets
 

This is the latest recevied weather packets stored in our database for station/object LU3HGB-WX. If no packets are shown the sender has not sent any weather packets the latest 10 day(s).

<< 93 94 95 96 97 98 99 >>
Time Temp. Humidity Pressure Rain* Wind** Luminosity Snow
1787996259 5° C 90% 1013 hPa 0 mm - 0 W/m² -
1787995959 5° C 88% 1013 hPa 0 mm - 0 W/m² -
1787995659 5.56° C 87% 1013 hPa 0 mm - 0 W/m² -
1787995359 5.56° C 88% 1012 hPa 0 mm - 0 W/m² -
1787995059 5.56° C 87% 1012 hPa 0 mm - 0 W/m² -
1787994759 6.11° C 86% 1012 hPa 0 mm - 0 W/m² -
1787994459 6.67° C 87% 1012 hPa 0 mm - 0 W/m² -
1787994159 6.67° C 86% 1012 hPa 0 mm - 0 W/m² -
1787993859 6.67° C 85% 1012 hPa 0 mm - 0 W/m² -
1787993559 7.22° C 84% 1012 hPa 0 mm - 0 W/m² -
1787993260 7.22° C 83% 1012 hPa 0 mm - 0 W/m² -
1787992959 7.22° C 83% 1012 hPa 0 mm - 0 W/m² -
1787992659 7.22° C 84% 1012 hPa 0 mm - 0 W/m² -
1787992359 7.22° C 86% 1012 hPa 0 mm - 0 W/m² -
1787992059 7.22° C 86% 1012 hPa 0 mm - 0 W/m² -
1787991759 7.78° C 86% 1012 hPa 0 mm - 0 W/m² -
1787991460 7.78° C 84% 1012 hPa 0 mm - 0 W/m² -
1787991160 8.33° C 83% 1012 hPa 0 mm - 0 W/m² -
1787990861 8.33° C 84% 1013 hPa 0 mm - 0 W/m² -
1787990560 8.33° C 83% 1012 hPa 0 mm - 0 W/m² -
1787990259 8.89° C 80% 1012 hPa 0 mm - 0 W/m² -
1787989959 9.44° C 80% 1012 hPa 0 mm - 0 W/m² -
1787989660 9.44° C 79% 1012 hPa 0 mm - 0 W/m² -
1787989359 9.44° C 78% 1012 hPa 0 mm - 0 W/m² -
1787989059 9.44° C 77% 1012 hPa 0 mm - 0 W/m² -

* Rain latest hour (hover to see other rain measurements)
** Current wind speed in m/s (hover to see current wind gust speed)